Location: ?????????
(41.2393°N, 22.9479°E)
Time: 05:48:49
(UTC+00:00)

Cosmos 2369 Rocket - Pass Details

Date: 17 November 2025
Orbit: 826 x 853 km, 71.0° (Epoch: 09 December)

Event Time Altitude Azimuth Distance (km) Brightness Sun altitude
Rises 17:59:49 0° 204° (SSW) 3,353 5.6 -32.3°
Reaches altitude 10° 18:02:14 10° 205° (SSW) 2,426 4.8 -32.8°
Enters shadow 18:04:26 25° 207° (SSW) 1,618 3.8 -33.2°
